[[{"header":{"parameterUnit":"m.s-1","parameterCategory":1,"la1":30.2991,"la2":30.254,"lo1":-89.0895,"lo2":-89.0444,"dy":0.0017,"dx":0.0017,"nx":28,"ny":28,"refTime":"2024-02-20T09:00:00:Z","depth":0,"parameterNumber":2,"parameterNumberName":"U-component_of_WINDS"},"data":[0,0,0,0,0,0,0,0,0,0,0,0,0,0,0,0,0,0,0,0,0,0,0,0,0,0,0,0,0,0,0,0,0,0,0,0,0,0,0,0,0,0,0,0,0,0,0,0,0,0,0,0,0,0,0,0,0,0,1.3564,1.3564,0,1.3592,1.3592,1.3593,1.3545,1.3544,1.3542,1.354,1.3571,1.3574,1.3576,0,0,0,0,0,0,0,0,0,0,0,0,0,1.3471,1.3473,1.3564,1.3564,1.3565,1.3592,1.3593,1.3593,1.3545,1.3543,1.3542,1.354,1.357,1.3573,1.3576,0,0,0,0,0,0,0,0,0,0,0,0,0,1.3506,1.3473,1.3564,1.3544,1.3543,1.3592,1.3593,1.3593,1.3546,1.3543,1.3541,1.3539,1.357,1.3573,1.3576,1.3647,0,0,1.3587,1.3589,0,0,0,0,0,0,0,0,1.3504,1.351,1.3547,1.3546,1.3544,1.3563,1.3571,1.3611,1.3547,1.3545,1.354,1.3538,1.3571,1.3574,1.3584,1.3648,1.3649,1.3587,1.359,1.3591,1.3592,0,0,0,0,0,0,0,1.3502,1.3508,1.3575,1.3548,1.3546,1.3535,1.3537,1.3578,1.3571,1.3545,1.3541,1.3545,1.3569,1.3581,1.3585,1.365,1.3587,1.359,1.3593,1.3594,1.3772,1.3774,0,0,0,0,0,0,1.3502,1.3507,1.3574,1.3576,1.3518,1.3538,1.3541,1.3559,1.357,1.357,1.3547,1.3543,1.3576,1.3581,1.3586,1.3668,1.3591,1.3594,1.3596,1.3769,1.3772,1.3775,0,0,0,0,0,0,1.35,1.3508,1.3573,1.354,1.3548,1.3542,1.3563,1.3561,1.3573,1.3572,1.3571,1.3561,1.3575,1.3581,1.3631,1.3668,1.3596,1.3599,1.3766,1.377,1.3774,1.3833,0,0,0,0,0,0,1.3497,1.3508,1.3534,1.3541,1.355,1.3618,1.3566,1.3563,1.3579,1.3573,1.3584,1.3584,1.3573,1.3627,1.3635,1.3672,1.3602,1.3763,1.3768,1.3772,1.3828,1.3839,1.3848,0,0,0,0,0,1.3494,1.3551,1.3536,1.3544,1.3583,1.3621,1.3625,1.3611,1.3582,1.3608,1.3608,1.3584,1.3663,1.3632,1.3641,1.368,1.376,1.3766,1.3772,1.3823,1.3837,1.3848,0,0,0,0,0,0,1.3549,1.3551,1.3535,1.3595,1.3608,1.3612,1.3645,1.3626,1.3648,1.3642,1.3624,1.3627,1.3681,1.3686,1.3651,1.3748,1.3707,1.3715,1.3743,1.3755,1.3765,1.3763,1.3605,0,0,0,0,0,1.3568,1.3598,1.3598,1.3652,1.3659,1.3651,1.3667,1.3655,1.3668,1.3673,1.3676,1.369,1.3718,1.3737,1.3763,1.3828,1.383,1.3859,1.3869,1.3877,1.3884,1.3919,1.3931,1.3794,1.3794,1.3794,0,0,1.3607,1.3612,1.3633,1.3663,1.3671,1.3703,1.3656,1.3692,1.3715,1.3679,1.3726,1.3729,1.3744,1.3802,1.3828,1.3807,1.3923,1.3885,1.3892,1.3894,1.3926,1.3939,1.3951,1.3798,1.3798,1.3797,0,0,1.3695,1.3703,1.3747,1.3756,1.3769,1.3764,1.3774,1.3782,1.3782,1.3829,1.3802,1.383,1.3879,1.389,1.3902,1.3994,1.3972,1.4003,1.4055,1.4088,1.4099,1.4108,1.414,1.4152,1.401,1.401,1.401,0,1.3743,1.3789,1.3773,1.381,1.3824,1.3791,1.3836,1.3846,1.3868,1.3878,1.3855,1.3914,1.3922,1.3981,1.4003,1.4015,1.4026,1.4001,1.4099,1.4108,1.4116,1.4147,1.4159,1.4013,1.4013,1.4013,1.4012,0,1.3847,1.388,1.3914,1.3934,1.3952,1.3993,1.3982,1.4003,1.3989,1.3986,1.4034,1.4042,1.4068,1.4082,1.4069,1.414,1.4126,1.4101,1.406,1.4133,1.4161,1.4173,1.4019,1.4017,1.4016,1.4015,0,0,1.397,1.398,1.3993,1.4001,1.4013,1.4038,1.4078,1.4102,1.412,1.4135,1.4168,1.4209,1.4186,1.4199,1.4188,1.4217,1.4288,1.4188,1.4188,1.4206,1.4366,1.4384,1.4398,1.4274,1.4276,1.4278,1.4364,0,1.4057,1.4124,1.411,1.4176,1.4206,1.4175,1.421,1.4221,1.4219,1.4244,1.4242,1.4272,1.4239,1.4246,1.4274,1.4274,1.432,1.4267,1.4304,1.4306,1.4301,1.4412,1.4432,1.4513,1.4375,1.4377,1.4378,0,1.4168,1.4186,1.4255,1.4261,1.4273,1.4304,1.4325,1.435,1.4362,1.4358,1.4373,1.4355,1.4395,1.4353,1.4407,1.4371,1.4385,1.4387,1.439,1.4393,1.4346,1.4417,1.4539,1.4551,1.4396,1.4394,1.4393,0,1.4249,1.4292,1.4338,1.4347,1.4355,1.4378,1.4382,1.4392,1.4407,1.4426,1.4436,1.446,1.4472,1.4491,1.448,1.4451,1.4536,1.4493,1.4534,1.4534,1.4553,1.4552,1.4678,1.4563,1.4563,1.4563,1.4563,0,1.4348,1.4391,1.4375,1.4404,1.4451,1.4434,1.4482,1.4483,1.4492,1.452,1.4495,1.4523,1.4507,1.4533,1.4525,1.4571,1.4577,1.4575,1.4573,1.4577,1.4577,1.4586,1.458,1.4566,1.4565,1.4565,1.4564,0,1.4447,1.4438,1.4487,1.449,1.4492,1.4527,1.453,1.4557,1.4553,1.4589,1.4597,1.4591,1.462,1.4612,1.4644,1.4638,1.4696,1.4686,1.4691,1.4689,1.473,1.4726,1.4865,1.4882,1.4757,1.4759,1.476,0,1.451,1.4542,1.4549,1.4566,1.4572,1.46,1.4615,1.46,1.4617,1.4632,1.4657,1.4684,1.4705,1.4753,1.4752,1.4777,1.4767,1.4814,1.4771,1.4774,1.4767,1.4765,1.4768,1.4823,1.4824,1.4825,1.4826,0,1.4622,1.4616,1.4639,1.466,1.4679,1.4695,1.4709,1.4724,1.471,1.4731,1.476,1.4776,1.4808,1.4835,1.4857,1.4862,1.4842,1.484,1.4851,1.4855,1.4857,1.4856,1.4714,1.4837,1.4836,1.4835,1.4835,1.4834,1.4704,1.4731,1.474,1.4766,1.4775,1.4788,1.4813,1.4812,1.4836,1.486,1.485,1.4884,1.4894,1.4921,1.4929,1.4956,1.4938,1.4953,1.4957,1.4961,1.4966,1.4853,1.496,1.4959,1.4959,1.4959,1.4959,0,1.4814,1.4818,1.4843,1.4862,1.4883,1.4862,1.4876,1.4895,1.4924,1.4935,1.4956,1.4989,1.5015,1.5016,1.504,1.5061,1.5052,1.5068,1.5066,1.5067,1.4981,1.4969,1.5074,1.5074,1.5074,1.5074,1.5074,1.5074,1.4874,1.4918,1.4913,1.4961,1.4965,1.4997,1.5007,1.5019,1.5028,1.5066,1.5087,1.5087,1.5094,1.5118,1.5141,1.5141,1.5151,1.517,1.5166,1.5085,1.5073,1.5062,1.5051,1.5172,1.5172,1.525,1.5251,1.5251]},{"header":{"parameterUnit":"m.s-1","parameterCategory":1,"la1":30.2991,"la2":30.254,"lo1":-89.0895,"lo2":-89.0444,"dy":0.0017,"dx":0.0017,"nx":28,"ny":28,"refTime":"2024-02-20T09:00:00:Z","depth":0,"parameterNumber":3,"parameterNumberName":"V-component_of_WINDS"},"data":[0,0,0,0,0,0,0,0,0,0,0,0,0,0,0,0,0,0,0,0,0,0,0,0,0,0,0,0,0,0,0,0,0,0,0,0,0,0,0,0,0,0,0,0,0,0,0,0,0,0,0,0,0,0,0,0,0,0,1.6161,1.6161,0,1.6133,1.6133,1.6132,1.6084,1.6083,1.6082,1.6081,1.6052,1.6052,1.6052,0,0,0,0,0,0,0,0,0,0,0,0,0,1.6174,1.6174,1.6161,1.6161,1.6161,1.6133,1.6133,1.6132,1.6084,1.6083,1.6082,1.6081,1.6052,1.6052,1.6052,0,0,0,0,0,0,0,0,0,0,0,0,0,1.616,1.6174,1.6161,1.6133,1.6131,1.6133,1.6133,1.6132,1.6084,1.6083,1.6082,1.6081,1.6052,1.6052,1.6052,1.608,0,0,1.6052,1.6052,0,0,0,0,0,0,0,0,1.6161,1.6159,1.6138,1.6135,1.6132,1.6111,1.6126,1.6114,1.6085,1.6102,1.6081,1.608,1.6073,1.6071,1.6068,1.6078,1.6077,1.6052,1.6052,1.6052,1.6052,0,0,0,0,0,0,0,1.6162,1.616,1.615,1.6138,1.6134,1.6122,1.6119,1.6124,1.6095,1.61,1.6097,1.6094,1.6071,1.6069,1.6067,1.6076,1.6052,1.6052,1.6052,1.6053,1.6107,1.6109,0,0,0,0,0,0,1.6167,1.6161,1.6151,1.6149,1.6143,1.6123,1.6119,1.6119,1.6095,1.609,1.6095,1.6092,1.6069,1.6067,1.6066,1.6096,1.6052,1.6053,1.6053,1.6106,1.6108,1.6109,0,0,0,0,0,0,1.6167,1.6166,1.6152,1.6154,1.6152,1.6124,1.6124,1.6119,1.6117,1.6091,1.6086,1.6098,1.6068,1.6066,1.6077,1.6095,1.6053,1.6053,1.6104,1.6107,1.6109,1.6157,0,0,0,0,0,0,1.6168,1.6167,1.6177,1.6155,1.6152,1.6163,1.6126,1.6119,1.6117,1.6112,1.6092,1.6088,1.6067,1.6077,1.6077,1.6094,1.6053,1.6103,1.6105,1.6108,1.6154,1.6161,1.6167,0,0,0,0,0,1.6168,1.6191,1.6177,1.6176,1.6163,1.6164,1.6162,1.6137,1.6119,1.6128,1.6112,1.6088,1.6093,1.6078,1.6078,1.6095,1.6101,1.6105,1.6108,1.6151,1.6159,1.6167,0,0,0,0,0,0,1.6216,1.6188,1.6172,1.6189,1.6179,1.6156,1.6167,1.6147,1.6143,1.6138,1.6108,1.6104,1.6118,1.6108,1.6092,1.6121,1.6094,1.6097,1.6127,1.6135,1.6141,1.6142,1.6053,0,0,0,0,0,1.6228,1.6231,1.6207,1.6224,1.622,1.6195,1.6194,1.6176,1.6165,1.616,1.6145,1.6135,1.6134,1.6134,1.6132,1.6153,1.6148,1.6165,1.6171,1.6177,1.6179,1.619,1.6197,1.612,1.612,1.612,0,0,1.6254,1.6239,1.6242,1.6233,1.6223,1.6227,1.6191,1.6197,1.6199,1.6161,1.617,1.6158,1.6145,1.6161,1.6168,1.6153,1.62,1.6181,1.6185,1.6185,1.6194,1.6201,1.6208,1.6122,1.6121,1.6121,0,0,1.6301,1.6291,1.6304,1.6295,1.6281,1.6265,1.6268,1.6248,1.6239,1.6248,1.6219,1.6222,1.6221,1.6213,1.6209,1.6256,1.6233,1.6256,1.6289,1.6299,1.6305,1.631,1.6326,1.6332,1.6259,1.6259,1.6259,0,1.6335,1.6339,1.6313,1.632,1.6317,1.6283,1.6296,1.6289,1.6275,1.6274,1.6258,1.6257,1.6246,1.6259,1.6271,1.6269,1.6272,1.6257,1.6306,1.6311,1.6316,1.6331,1.6337,1.6262,1.6261,1.6261,1.6261,0,1.638,1.6383,1.6396,1.6383,1.6381,1.6392,1.6368,1.6369,1.6352,1.6337,1.6346,1.6332,1.6327,1.6329,1.6312,1.634,1.6332,1.6312,1.6283,1.6326,1.634,1.6345,1.6266,1.6265,1.6264,1.6263,0,0,1.6455,1.6429,1.6434,1.6428,1.6411,1.6413,1.6423,1.6417,1.6419,1.6411,1.6418,1.6419,1.64,1.6396,1.6378,1.6387,1.6424,1.6366,1.6365,1.6376,1.6454,1.6468,1.6475,1.641,1.6411,1.6412,1.6455,0,1.6498,1.6511,1.6489,1.6508,1.651,1.648,1.6488,1.6478,1.6465,1.6466,1.6451,1.6452,1.6428,1.6425,1.6433,1.6418,1.6439,1.6415,1.6415,1.6416,1.6418,1.6482,1.6497,1.6538,1.646,1.6461,1.6462,0,1.655,1.6545,1.6564,1.6546,1.6547,1.6554,1.6548,1.6549,1.6538,1.6528,1.6524,1.6503,1.651,1.6484,1.6494,1.6478,1.6478,1.647,1.6471,1.6469,1.644,1.6481,1.6551,1.6556,1.647,1.6469,1.6469,0,1.6602,1.66,1.6611,1.6607,1.6587,1.6593,1.6585,1.6573,1.6571,1.6566,1.6565,1.6561,1.6558,1.6556,1.6535,1.6518,1.6547,1.652,1.6539,1.6539,1.6545,1.6544,1.6614,1.6547,1.6547,1.6547,1.6546,0,1.6652,1.6664,1.6634,1.664,1.6654,1.6629,1.6643,1.6632,1.6621,1.6625,1.6599,1.6604,1.6576,1.6577,1.6561,1.6572,1.6571,1.6563,1.6558,1.6564,1.6565,1.6562,1.6558,1.6548,1.6548,1.6547,1.6547,0,1.6711,1.6691,1.6701,1.6682,1.6677,1.6688,1.6671,1.6677,1.6663,1.6668,1.6668,1.6646,1.6646,1.6626,1.6622,1.6611,1.6628,1.6619,1.6632,1.6628,1.6648,1.6646,1.6717,1.6725,1.6654,1.6655,1.6655,0,1.6743,1.6752,1.6734,1.6735,1.6728,1.673,1.6729,1.6705,1.6705,1.6693,1.67,1.6699,1.6696,1.6699,1.6682,1.6679,1.6669,1.6694,1.6668,1.6674,1.6668,1.6667,1.6668,1.6699,1.67,1.6701,1.6701,0,1.6802,1.6792,1.6791,1.6787,1.6786,1.6782,1.6776,1.6778,1.6752,1.6753,1.6754,1.6752,1.6748,1.6747,1.6742,1.6733,1.6713,1.671,1.6714,1.672,1.6726,1.6722,1.6645,1.6708,1.6707,1.6707,1.6706,1.6706,1.6848,1.6855,1.6843,1.6843,1.6836,1.6831,1.6835,1.6822,1.6822,1.6817,1.6804,1.6807,1.6796,1.6787,1.678,1.6782,1.677,1.6776,1.6777,1.6779,1.6782,1.6728,1.6781,1.6781,1.6781,1.6781,1.6781,0,1.6905,1.6896,1.6897,1.6889,1.6889,1.6871,1.6864,1.6865,1.6868,1.686,1.6858,1.6859,1.6858,1.6842,1.6839,1.6844,1.6834,1.6844,1.6842,1.6841,1.6794,1.679,1.6851,1.6851,1.6851,1.6851,1.6851,1.6851,1.6935,1.6944,1.6934,1.694,1.6931,1.6934,1.6931,1.6927,1.692,1.6922,1.6921,1.6911,1.69,1.6897,1.6895,1.6891,1.689,1.6902,1.6895,1.6851,1.6844,1.6837,1.6834,1.6903,1.6903,1.6941,1.6941,1.6942]}]]